When you browse on this site, cookies collect data to enhance your experience and personalize the content and advertising you see.
Visit our Privacy Policy to learn more. By continuing to use the site, you agree to this use of cookies and data.
  • în România
  • Lista ţărilor
  • Pe 7 zile
  • Temperatura apei
  • Hartă satelitară
  • Meteo pe hartă
  • Widget-uri
  • user-avatar
    Intrare

    Meteo pe oră la Batumi

    Astăzi, 27 Mai, Luni

    Timp Temperatura Precipitaţii Vânt Presiune Umiditate
    00:00 +17°C° 0 mm 2 m/s 765 mmHg 91%
    01:00 +16°C° 0 mm 2 m/s 765 mmHg 89%
    02:00 +16°C° 0 mm 2 m/s 765 mmHg 87%
    03:00 +16°C° 0 mm 2 m/s 765 mmHg 84%
    04:00 +16°C° 0 mm 2 m/s 765 mmHg 82%
    05:00 +17°C° 0 mm 2 m/s 765 mmHg 79%
    06:00 +18°C° 0 mm 2 m/s 765 mmHg 77%
    07:00 +20°C° 0 mm 2 m/s 765 mmHg 68%
    08:00 +23°C° 0 mm 2 m/s 765 mmHg 58%
    09:00 +26°C° 0 mm 1 m/s 765 mmHg 49%
    10:00 +26°C° 0 mm 2 m/s 764 mmHg 48%
    11:00 +27°C° 0 mm 2 m/s 764 mmHg 46%
    12:00 +28°C° 0 mm 3 m/s 764 mmHg 45%
    13:00 +28°C° 0 mm 3 m/s 764 mmHg 46%
    14:00 +28°C° 0 mm 2 m/s 763 mmHg 46%
    15:00 +27°C° 0 mm 2 m/s 763 mmHg 47%
    16:00 +26°C° 0 mm 2 m/s 763 mmHg 53%
    17:00 +25°C° 0 mm 1 m/s 763 mmHg 58%
    18:00 +24°C° 0 mm 1 m/s 763 mmHg 64%
    19:00 +22°C° 0 mm 1 m/s 764 mmHg 71%
    20:00 +19°C° 0 mm 2 m/s 764 mmHg 78%
    21:00 +18°C° 0 mm 2 m/s 765 mmHg 85%
    22:00 +17°C° 0 mm 2 m/s 765 mmHg 81%
    23:00 +17°C° 0 mm 2 m/s 765 mmHg 77%

    Mâine, 28 Mai, Marţi

    Timp Temperatura Precipitaţii Vânt Presiune Umiditate
    00:00 +17°C° 0 mm 2 m/s 765 mmHg 73%
    01:00 +17°C° 0 mm 2 m/s 765 mmHg 70%
    02:00 +17°C° 0 mm 3 m/s 765 mmHg 67%
    03:00 +17°C° 0 mm 3 m/s 765 mmHg 64%
    04:00 +17°C° 0 mm 3 m/s 765 mmHg 63%
    05:00 +18°C° 0 mm 3 m/s 765 mmHg 62%
    06:00 +18°C° 0 mm 3 m/s 764 mmHg 61%
    07:00 +21°C° 0 mm 2 m/s 764 mmHg 53%
    08:00 +26°C° 0 mm 2 m/s 764 mmHg 45%
    09:00 +29°C° 0 mm 2 m/s 763 mmHg 36%
    10:00 +29°C° 0 mm 2 m/s 763 mmHg 35%
    11:00 +30°C° 0 mm 2 m/s 763 mmHg 34%
    12:00 +30°C° 0 mm 3 m/s 763 mmHg 33%
    13:00 +30°C° 0 mm 2 m/s 762 mmHg 32%
    14:00 +30°C° 0 mm 2 m/s 762 mmHg 32%
    15:00 +30°C° 0 mm 2 m/s 762 mmHg 32%
    16:00 +29°C° 0 mm 2 m/s 762 mmHg 39%
    17:00 +27°C° 0 mm 1 m/s 762 mmHg 45%
    18:00 +26°C° 0 mm 1 m/s 762 mmHg 52%
    19:00 +24°C° 0 mm 2 m/s 762 mmHg 52%
    20:00 +21°C° 0 mm 2 m/s 763 mmHg 53%
    21:00 +19°C° 0 mm 3 m/s 764 mmHg 54%
    22:00 +19°C° 0 mm 3 m/s 764 mmHg 49%
    23:00 +19°C° 0 mm 3 m/s 763 mmHg 45%

    Poimâine, 29 Mai, Miercuri

    Timp Temperatura Precipitaţii Vânt Presiune Umiditate
    00:00 +19°C° 0 mm 3 m/s 763 mmHg 41%
    01:00 +19°C° 0 mm 3 m/s 763 mmHg 41%
    02:00 +19°C° 0 mm 3 m/s 763 mmHg 41%
    03:00 +18°C° 0 mm 3 m/s 763 mmHg 41%
    04:00 +19°C° 0 mm 3 m/s 763 mmHg 45%
    05:00 +19°C° 0 mm 3 m/s 763 mmHg 48%
    06:00 +20°C° 0 mm 4 m/s 763 mmHg 51%
    07:00 +24°C° 0 mm 3 m/s 762 mmHg 46%
    08:00 +28°C° 0 mm 2 m/s 762 mmHg 40%
    09:00 +32°C° 0 mm 1 m/s 762 mmHg 34%
    10:00 +32°C° 0 mm 1 m/s 761 mmHg 33%
    11:00 +34°C° 0 mm 2 m/s 761 mmHg 31%
    12:00 +35°C° 0 mm 2 m/s 760 mmHg 30%
    13:00 +35°C° 0 mm 2 m/s 760 mmHg 31%
    14:00 +34°C° 0 mm 2 m/s 760 mmHg 31%
    15:00 +34°C° 0 mm 2 m/s 760 mmHg 32%
    16:00 +32°C° 0 mm 1 m/s 760 mmHg 39%
    17:00 +31°C° 0 mm 1 m/s 760 mmHg 46%
    18:00 +28°C° 0 mm 0 m/s 760 mmHg 53%
    19:00 +27°C° 0 mm 1 m/s 760 mmHg 54%
    20:00 +25°C° 0 mm 2 m/s 761 mmHg 56%
    21:00 +22°C° 0 mm 3 m/s 761 mmHg 58%
    22:00 +22°C° 0 mm 3 m/s 761 mmHg 57%
    23:00 +22°C° 0 mm 3 m/s 762 mmHg 56%

    30 Mai, Joi

    Timp Temperatura Precipitaţii Vânt Presiune Umiditate
    00:00 +22°C° 0 mm 3 m/s 762 mmHg 55%
    01:00 +21°C° 0 mm 3 m/s 762 mmHg 55%
    02:00 +21°C° 0 mm 3 m/s 762 mmHg 54%
    03:00 +21°C° 0 mm 3 m/s 762 mmHg 53%
    04:00 +21°C° 0 mm 3 m/s 762 mmHg 54%
    05:00 +21°C° 0 mm 3 m/s 762 mmHg 56%
    06:00 +22°C° 0 mm 3 m/s 761 mmHg 57%
    07:00 +26°C° 0 mm 2 m/s 761 mmHg 50%
    08:00 +30°C° 0 mm 2 m/s 761 mmHg 42%
    09:00 +33°C° 0 mm 1 m/s 760 mmHg 34%
    10:00 +34°C° 0 mm 1 m/s 760 mmHg 31%
    11:00 +35°C° 0 mm 2 m/s 760 mmHg 29%
    12:00 +35°C° 0 mm 2 m/s 759 mmHg 26%
    13:00 +35°C° 0 mm 2 m/s 759 mmHg 26%
    14:00 +35°C° 0 mm 2 m/s 759 mmHg 26%
    15:00 +35°C° 0 mm 2 m/s 759 mmHg 25%
    16:00 +33°C° 0 mm 1 m/s 759 mmHg 33%
    17:00 +31°C° 0 mm 1 m/s 759 mmHg 41%
    18:00 +28°C° 0 mm 0 m/s 759 mmHg 49%
    19:00 +28°C° 0 mm 1 m/s 759 mmHg 49%
    20:00 +26°C° 0 mm 2 m/s 760 mmHg 50%
    21:00 +24°C° 0 mm 2 m/s 760 mmHg 50%
    22:00 +24°C° 0 mm 2 m/s 760 mmHg 51%
    23:00 +24°C° 0 mm 3 m/s 760 mmHg 51%

    31 Mai, Vineri

    Timp Temperatura Precipitaţii Vânt Presiune Umiditate
    00:00 +24°C° 0 mm 3 m/s 760 mmHg 52%
    01:00 +24°C° 0 mm 3 m/s 760 mmHg 53%
    02:00 +24°C° 0 mm 3 m/s 760 mmHg 54%
    03:00 +22°C° 0 mm 3 m/s 759 mmHg 54%
    04:00 +24°C° 0 mm 3 m/s 759 mmHg 56%
    05:00 +24°C° 0 mm 3 m/s 759 mmHg 57%
    06:00 +24°C° 0 mm 3 m/s 759 mmHg 59%
    07:00 +28°C° 0 mm 2 m/s 759 mmHg 53%
    08:00 +31°C° 0 mm 2 m/s 758 mmHg 46%
    09:00 +34°C° 0 mm 1 m/s 758 mmHg 40%
    10:00 +36°C° 0 mm 2 m/s 757 mmHg 39%
    11:00 +36°C° 0 mm 2 m/s 757 mmHg 37%
    12:00 +37°C° 0 mm 2 m/s 756 mmHg 36%
    13:00 +37°C° 0 mm 2 m/s 756 mmHg 37%
    14:00 +36°C° 0 mm 2 m/s 756 mmHg 39%
    15:00 +36°C° 0 mm 2 m/s 755 mmHg 40%
    16:00 +35°C° 0 mm 2 m/s 755 mmHg 48%
    17:00 +32°C° 0 mm 2 m/s 755 mmHg 55%
    18:00 +31°C° 0 mm 2 m/s 756 mmHg 63%
    19:00 +29°C° 0 mm 2 m/s 756 mmHg 69%
    20:00 +27°C° 0 mm 2 m/s 756 mmHg 76%
    21:00 +25°C° 0 mm 2 m/s 757 mmHg 82%
    22:00 +26°C° 0 mm 2 m/s 757 mmHg 79%
    23:00 +26°C° 0 mm 2 m/s 757 mmHg 77%

    1 Iunie, Sâmbătă

    Timp Temperatura Precipitaţii Vânt Presiune Umiditate
    00:00 +26°C° 0 mm 1 m/s 757 mmHg 74%
    01:00 +26°C° 0.1 mm 2 m/s 757 mmHg 73%
    02:00 +25°C° 0.1 mm 2 m/s 757 mmHg 72%
    03:00 +25°C° 0.1 mm 2 m/s 757 mmHg 70%
    04:00 +25°C° 0.2 mm 2 m/s 757 mmHg 70%
    05:00 +25°C° 0.2 mm 2 m/s 757 mmHg 70%
    06:00 +26°C° 0.2 mm 1 m/s 757 mmHg 70%
    07:00 +27°C° 0.1 mm 2 m/s 756 mmHg 67%
    08:00 +28°C° 0.1 mm 2 m/s 756 mmHg 65%
    09:00 +30°C° 0.1 mm 3 m/s 756 mmHg 62%
    10:00 +31°C° 0 mm 2 m/s 756 mmHg 61%
    11:00 +31°C° 0 mm 2 m/s 756 mmHg 60%
    12:00 +32°C° 0 mm 2 m/s 756 mmHg 58%
    13:00 +32°C° 0.1 mm 2 m/s 756 mmHg 60%
    14:00 +32°C° 0.1 mm 2 m/s 756 mmHg 61%
    15:00 +32°C° 0.1 mm 2 m/s 756 mmHg 63%
    16:00 +31°C° 0.1 mm 2 m/s 756 mmHg 69%
    17:00 +29°C° 0.1 mm 2 m/s 756 mmHg 76%
    18:00 +28°C° 0.1 mm 2 m/s 756 mmHg 82%
    19:00 +27°C° 0.1 mm 1 m/s 757 mmHg 85%
    20:00 +26°C° 0.1 mm 1 m/s 757 mmHg 88%
    21:00 +25°C° 0.1 mm 1 m/s 758 mmHg 91%
    22:00 +25°C° 0 mm 1 m/s 758 mmHg 89%
    23:00 +25°C° 0 mm 1 m/s 758 mmHg 86%
    Arată mai mult